Powrót do katalogu

COSMOS 2251 DEB

AktywnyLEO
NORAD 34045·DEBRIS·🇷🇺 Russia

Wystrzelony Jun 16, 1993 z Plesetsk Cosmodrome

Loading…

Następne Przeloty (najbliższe 24 godziny)

TLE

ŚwieżeSource: Space-Track

Epoka: Sep 14, 2026, 05:25 UTC

1 34045U 93036JG  26257.22599355  .00000121  00000-0  52441-4 0  9993
2 34045  74.0398 166.7114 0026683 187.8895 327.2088 14.34186892919821

Śledź COSMOS 2251 DEB w czasie rzeczywistym z AllMySat

Download on the App Store